[[{"header":{"parameterUnit":"m.s-1","parameterCategory":1,"la1":30.2991,"la2":30.254,"lo1":-89.0895,"lo2":-89.0444,"dy":0.0017,"dx":0.0017,"nx":28,"ny":28,"refTime":"2024-06-17T09:00:00:Z","depth":0,"parameterNumber":2,"parameterNumberName":"U-component_of_WINDS"},"data":[0,0,0,0,0,0,0,0,0,0,0,0,0,0,0,0,0,0,0,0,0,0,0,0,0,0,0,0,0,0,0,0,0,0,0,0,0,0,0,0,0,0,0,0,0,0,0,0,0,0,0,0,0,0,0,0,0,0,-10.2911,-10.2912,0,-10.2971,-10.2971,-10.2972,-10.281,-10.2805,-10.28,-10.2795,-10.2846,-10.2852,-10.2858,0,0,0,0,0,0,0,0,0,0,0,0,0,-10.2649,-10.2655,-10.2911,-10.2912,-10.2913,-10.2971,-10.2971,-10.2972,-10.2811,-10.2805,-10.2799,-10.2793,-10.2844,-10.2851,-10.2858,0,0,0,0,0,0,0,0,0,0,0,0,0,-10.2741,-10.2657,-10.2911,-10.284,-10.2834,-10.297,-10.2971,-10.2972,-10.2812,-10.2805,-10.2797,-10.279,-10.2842,-10.285,-10.2859,-10.3065,0,0,-10.2887,-10.2891,0,0,0,0,0,0,0,0,-10.2736,-10.2751,-10.2849,-10.2845,-10.2839,-10.2875,-10.2897,-10.3003,-10.2814,-10.282,-10.2795,-10.2786,-10.2861,-10.2868,-10.2895,-10.3067,-10.3069,-10.2887,-10.2893,-10.2897,-10.2899,0,0,0,0,0,0,0,-10.273,-10.2747,-10.2934,-10.2851,-10.2844,-10.2801,-10.2806,-10.2916,-10.2881,-10.2819,-10.2807,-10.2817,-10.2857,-10.2887,-10.2895,-10.307,-10.2887,-10.2895,-10.2901,-10.2904,-10.3412,-10.342,0,0,0,0,0,0,-10.2734,-10.2743,-10.2932,-10.2936,-10.2768,-10.2812,-10.2818,-10.2871,-10.288,-10.2874,-10.2823,-10.2809,-10.2875,-10.2885,-10.2896,-10.3136,-10.2897,-10.2905,-10.291,-10.3404,-10.3414,-10.3423,0,0,0,0,0,0,-10.2729,-10.2753,-10.293,-10.2837,-10.2856,-10.2825,-10.2886,-10.2876,-10.2906,-10.2884,-10.2875,-10.2862,-10.287,-10.2884,-10.3024,-10.3135,-10.2909,-10.2917,-10.3395,-10.3407,-10.3418,-10.3618,0,0,0,0,0,0,-10.2722,-10.2752,-10.2832,-10.284,-10.2862,-10.306,-10.2893,-10.2883,-10.2923,-10.2906,-10.2917,-10.2912,-10.2865,-10.3012,-10.3034,-10.3144,-10.2924,-10.3384,-10.34,-10.3414,-10.3601,-10.3636,-10.3665,0,0,0,0,0,-10.2714,-10.2883,-10.2836,-10.286,-10.2961,-10.3067,-10.3079,-10.3025,-10.2933,-10.3011,-10.2997,-10.2911,-10.3121,-10.3028,-10.3051,-10.3165,-10.3377,-10.3396,-10.3413,-10.3587,-10.3629,-10.3664,0,0,0,0,0,0,-10.2884,-10.2883,-10.2831,-10.3009,-10.304,-10.304,-10.3136,-10.3071,-10.3125,-10.3106,-10.3033,-10.3037,-10.3191,-10.3192,-10.3089,-10.3364,-10.3233,-10.3256,-10.3357,-10.3397,-10.3428,-10.3422,-10.2932,0,0,0,0,0,-10.2944,-10.3033,-10.3026,-10.3184,-10.3202,-10.3168,-10.3212,-10.3168,-10.3195,-10.3206,-10.3202,-10.3229,-10.3301,-10.3349,-10.3414,-10.3603,-10.3601,-10.3693,-10.3724,-10.3751,-10.377,-10.3868,-10.3908,-10.3482,-10.3482,-10.3482,0,0,-10.3065,-10.3075,-10.3135,-10.3218,-10.3237,-10.3328,-10.3179,-10.3282,-10.3347,-10.322,-10.3353,-10.3352,-10.3377,-10.3543,-10.3615,-10.3549,-10.3889,-10.3774,-10.3795,-10.38,-10.3891,-10.3932,-10.3967,-10.3495,-10.3493,-10.3491,0,0,-10.3332,-10.3351,-10.3484,-10.3507,-10.3539,-10.3515,-10.3548,-10.3559,-10.3554,-10.3687,-10.3594,-10.367,-10.3796,-10.3818,-10.3845,-10.4125,-10.4047,-10.4148,-10.4312,-10.4409,-10.4442,-10.4472,-10.4569,-10.4605,-10.4169,-10.417,-10.417,0,-10.3477,-10.3615,-10.356,-10.367,-10.3708,-10.3602,-10.3734,-10.3758,-10.3809,-10.3836,-10.3762,-10.3919,-10.3928,-10.4096,-10.4165,-10.4192,-10.4224,-10.4144,-10.4443,-10.4472,-10.4498,-10.4589,-10.4627,-10.4182,-10.418,-10.4179,-10.4178,0,-10.3791,-10.3887,-10.399,-10.4046,-10.4096,-10.4217,-10.4177,-10.4234,-10.4187,-10.4171,-10.4307,-10.4317,-10.4381,-10.4419,-10.4372,-10.4581,-10.4538,-10.4456,-10.4321,-10.4551,-10.4636,-10.4671,-10.4199,-10.4194,-10.4191,-10.4188,0,0,-10.4162,-10.419,-10.4228,-10.4252,-10.4281,-10.4353,-10.4468,-10.4535,-10.4584,-10.4624,-10.4716,-10.4827,-10.4751,-10.4783,-10.4738,-10.4824,-10.5042,-10.4729,-10.4729,-10.4784,-10.527,-10.5329,-10.5371,-10.4993,-10.4999,-10.5005,-10.5266,0,-10.4423,-10.4625,-10.4581,-10.4777,-10.4865,-10.4768,-10.4868,-10.4895,-10.4884,-10.4954,-10.4939,-10.5018,-10.4913,-10.4932,-10.5012,-10.4999,-10.5138,-10.498,-10.5074,-10.5078,-10.5067,-10.5416,-10.5479,-10.5725,-10.5299,-10.5305,-10.5309,0,-10.4754,-10.4811,-10.5018,-10.5034,-10.5069,-10.516,-10.5218,-10.5288,-10.5316,-10.5302,-10.534,-10.5279,-10.539,-10.526,-10.541,-10.5304,-10.5341,-10.534,-10.5348,-10.5351,-10.5205,-10.5425,-10.5803,-10.5838,-10.5361,-10.5357,-10.5353,0,-10.5001,-10.5129,-10.5269,-10.5293,-10.5316,-10.5382,-10.5394,-10.5416,-10.546,-10.551,-10.5537,-10.5599,-10.5631,-10.568,-10.5636,-10.5545,-10.5793,-10.5659,-10.5781,-10.5782,-10.5834,-10.583,-10.6219,-10.5865,-10.5864,-10.5864,-10.5863,0,-10.5295,-10.5425,-10.538,-10.5466,-10.5608,-10.5555,-10.5696,-10.5696,-10.5717,-10.5799,-10.5719,-10.5796,-10.5737,-10.5809,-10.5776,-10.5905,-10.5921,-10.591,-10.5898,-10.5915,-10.5916,-10.5934,-10.5914,-10.5873,-10.5871,-10.5869,-10.5868,0,-10.5592,-10.5568,-10.5714,-10.5727,-10.5733,-10.5836,-10.5844,-10.5923,-10.5908,-10.6012,-10.6033,-10.6008,-10.6089,-10.6053,-10.6136,-10.6114,-10.6279,-10.6247,-10.627,-10.626,-10.6384,-10.6371,-10.6795,-10.6846,-10.6463,-10.6466,-10.647,0,-10.5779,-10.5878,-10.5902,-10.5953,-10.5972,-10.6055,-10.6101,-10.6053,-10.6103,-10.6145,-10.6217,-10.6292,-10.6349,-10.6483,-10.647,-10.6533,-10.65,-10.6644,-10.6508,-10.6521,-10.6498,-10.6491,-10.6499,-10.6669,-10.6674,-10.6678,-10.6681,0,-10.6113,-10.6098,-10.6168,-10.6236,-10.6293,-10.6343,-10.6385,-10.643,-10.6384,-10.6444,-10.6528,-10.6573,-10.6661,-10.6735,-10.6792,-10.68,-10.6732,-10.6725,-10.6755,-10.6771,-10.6779,-10.6773,-10.634,-10.6714,-10.671,-10.6708,-10.6706,-10.6705,-10.6358,-10.6441,-10.6472,-10.6553,-10.6581,-10.6623,-10.6698,-10.6694,-10.6764,-10.6834,-10.6802,-10.6899,-10.6925,-10.6994,-10.7013,-10.7086,-10.7028,-10.7074,-10.7085,-10.7096,-10.7111,-10.6772,-10.7096,-10.7095,-10.7094,-10.7093,-10.7093,0,-10.6685,-10.6702,-10.6778,-10.6841,-10.6905,-10.6842,-10.6886,-10.6941,-10.7029,-10.7062,-10.7121,-10.7217,-10.729,-10.7285,-10.7351,-10.741,-10.738,-10.7428,-10.7421,-10.7424,-10.716,-10.7125,-10.7451,-10.7451,-10.7451,-10.7451,-10.7451,-10.7451,-10.6863,-10.6999,-10.6988,-10.7136,-10.715,-10.7248,-10.7278,-10.7315,-10.7341,-10.7453,-10.7515,-10.7513,-10.7529,-10.7596,-10.7659,-10.7656,-10.7682,-10.7741,-10.7726,-10.7478,-10.7442,-10.7408,-10.7375,-10.7749,-10.7749,-10.7983,-10.7985,-10.7987]},{"header":{"parameterUnit":"m.s-1","parameterCategory":1,"la1":30.2991,"la2":30.254,"lo1":-89.0895,"lo2":-89.0444,"dy":0.0017,"dx":0.0017,"nx":28,"ny":28,"refTime":"2024-06-17T09:00:00:Z","depth":0,"parameterNumber":3,"parameterNumberName":"V-component_of_WINDS"},"data":[0,0,0,0,0,0,0,0,0,0,0,0,0,0,0,0,0,0,0,0,0,0,0,0,0,0,0,0,0,0,0,0,0,0,0,0,0,0,0,0,0,0,0,0,0,0,0,0,0,0,0,0,0,0,0,0,0,0,1.3814,1.3815,0,1.3918,1.3919,1.392,1.3949,1.3949,1.3948,1.3947,1.405,1.4053,1.4056,0,0,0,0,0,0,0,0,0,0,0,0,0,1.3639,1.3642,1.3814,1.3815,1.3816,1.3918,1.3919,1.392,1.3949,1.3949,1.3948,1.3947,1.4049,1.4053,1.4056,0,0,0,0,0,0,0,0,0,0,0,0,0,1.3726,1.3643,1.3814,1.3843,1.3847,1.3917,1.3919,1.3921,1.3949,1.3949,1.3948,1.3947,1.4047,1.4052,1.4057,1.4104,0,0,1.4072,1.4074,0,0,0,0,0,0,0,0,1.3721,1.3733,1.3837,1.3841,1.3845,1.392,1.3895,1.3982,1.395,1.391,1.3947,1.3946,1.4007,1.4015,1.4036,1.4109,1.4114,1.4072,1.4075,1.4077,1.4079,0,0,0,0,0,0,0,1.3715,1.3728,1.3855,1.3839,1.3844,1.3851,1.3862,1.3912,1.3962,1.3914,1.3916,1.3928,1.4009,1.4032,1.4039,1.4115,1.4072,1.4077,1.408,1.4082,1.4236,1.4237,0,0,0,0,0,0,1.3704,1.3723,1.3852,1.3858,1.378,1.3855,1.3867,1.3897,1.3962,1.3971,1.3929,1.3929,1.4024,1.4033,1.4043,1.4106,1.4077,1.4082,1.4085,1.4235,1.4237,1.4238,0,0,0,0,0,0,1.3701,1.3716,1.3847,1.3791,1.3809,1.3859,1.3891,1.3899,1.3922,1.3973,1.3982,1.3943,1.4023,1.4036,1.409,1.411,1.4084,1.4089,1.4234,1.4236,1.4237,1.423,0,0,0,0,0,0,1.3695,1.3714,1.3733,1.3792,1.3812,1.3893,1.3892,1.3902,1.3931,1.3932,1.3989,1.3997,1.4024,1.4083,1.4095,1.4116,1.4092,1.4232,1.4235,1.4237,1.4229,1.4231,1.4234,0,0,0,0,0,1.3689,1.3724,1.3733,1.3749,1.3836,1.3894,1.3906,1.3937,1.3932,1.3952,1.3985,1.3995,1.4105,1.4088,1.4102,1.4125,1.4231,1.4234,1.4237,1.4228,1.4231,1.4233,0,0,0,0,0,0,1.3664,1.3733,1.3743,1.3799,1.3841,1.3899,1.3924,1.3938,1.3981,1.3981,1.4016,1.4029,1.4081,1.4108,1.4088,1.4176,1.4168,1.4174,1.4157,1.416,1.4163,1.4156,1.4097,0,0,0,0,0,1.3666,1.3708,1.3765,1.3809,1.383,1.3874,1.39,1.3921,1.3965,1.3983,1.402,1.4062,1.4106,1.4134,1.4177,1.4232,1.4247,1.4255,1.4257,1.4259,1.4264,1.4299,1.4304,1.4247,1.4247,1.4247,0,0,1.3668,1.3711,1.3735,1.3805,1.384,1.3884,1.3888,1.3933,1.3966,1.3989,1.4044,1.4073,1.4122,1.4178,1.4204,1.4202,1.4283,1.4263,1.4264,1.4268,1.4302,1.4307,1.4312,1.4248,1.4248,1.4248,0,0,1.3696,1.3731,1.3774,1.381,1.3864,1.3893,1.3903,1.3961,1.3982,1.4038,1.4057,1.4096,1.4171,1.4206,1.4234,1.4279,1.4291,1.4292,1.4305,1.4338,1.4343,1.4347,1.4366,1.4372,1.4296,1.4296,1.4296,0,1.3692,1.3759,1.3793,1.3839,1.387,1.3895,1.3939,1.3972,1.4036,1.4058,1.4054,1.4152,1.4186,1.4253,1.4264,1.4285,1.4299,1.4286,1.434,1.4344,1.4349,1.4367,1.4374,1.4296,1.4296,1.4296,1.4296,0,1.3753,1.38,1.3827,1.3892,1.3926,1.397,1.4012,1.4042,1.4061,1.4091,1.4149,1.4192,1.4246,1.4263,1.428,1.4333,1.4331,1.4333,1.4326,1.4354,1.4372,1.4379,1.4296,1.4296,1.4296,1.4296,0,0,1.3766,1.3853,1.3862,1.3894,1.3957,1.3994,1.404,1.4095,1.4122,1.4166,1.4207,1.4272,1.4276,1.4307,1.4329,1.4358,1.4395,1.4357,1.4359,1.4365,1.446,1.4459,1.4467,1.4403,1.4404,1.4405,1.4457,0,1.3803,1.3889,1.3923,1.3992,1.4037,1.4063,1.4104,1.4148,1.4177,1.422,1.4252,1.4299,1.4299,1.4319,1.4349,1.4384,1.4415,1.438,1.4442,1.4444,1.4432,1.4476,1.4475,1.4521,1.4464,1.4465,1.4466,0,1.3858,1.3906,1.3981,1.4043,1.4063,1.4099,1.4155,1.4195,1.4245,1.4265,1.4303,1.4323,1.4374,1.4363,1.4434,1.441,1.4438,1.4459,1.4462,1.447,1.4458,1.4488,1.4536,1.4544,1.4477,1.4476,1.4475,0,1.3864,1.3947,1.4004,1.403,1.4102,1.4128,1.4159,1.4209,1.4241,1.4289,1.4311,1.4363,1.4392,1.4432,1.4467,1.4456,1.4536,1.4528,1.4555,1.4555,1.4572,1.4571,1.4628,1.4585,1.4585,1.4585,1.4585,0,1.3903,1.3948,1.4008,1.4043,1.4096,1.4134,1.4185,1.4218,1.4263,1.4305,1.4329,1.4368,1.4411,1.4456,1.4483,1.454,1.4551,1.457,1.4577,1.4569,1.4567,1.4589,1.4587,1.4587,1.4587,1.4586,1.4586,0,1.3918,1.396,1.4024,1.4089,1.4106,1.4142,1.4198,1.4233,1.4266,1.4319,1.4334,1.4384,1.4439,1.4477,1.4546,1.4564,1.4626,1.4632,1.461,1.4614,1.4641,1.4639,1.4715,1.4729,1.4675,1.4675,1.4676,0,1.3941,1.3977,1.4048,1.4079,1.4111,1.416,1.4195,1.4235,1.427,1.4333,1.4361,1.4418,1.4465,1.4551,1.4593,1.4647,1.4656,1.4679,1.4664,1.4656,1.466,1.4658,1.4664,1.4681,1.4682,1.4682,1.4682,0,1.3979,1.3999,1.4048,1.4107,1.4148,1.4195,1.4242,1.4266,1.4315,1.4353,1.441,1.4448,1.4521,1.4577,1.4636,1.4668,1.4684,1.4687,1.4697,1.469,1.4678,1.4688,1.4619,1.4685,1.4685,1.4685,1.4684,1.4684,1.4,1.4036,1.4092,1.4148,1.4188,1.4233,1.4271,1.431,1.4359,1.4423,1.4444,1.4504,1.4557,1.4638,1.4671,1.4719,1.4718,1.4731,1.4735,1.4738,1.474,1.4669,1.4729,1.4729,1.4729,1.4729,1.4729,0,1.4042,1.4081,1.4131,1.4199,1.4243,1.4257,1.4311,1.4347,1.4401,1.4449,1.4497,1.4565,1.4622,1.467,1.4728,1.4758,1.4767,1.4772,1.4771,1.4779,1.4736,1.4723,1.4764,1.4764,1.4764,1.4764,1.4764,1.4764,1.4069,1.4131,1.4158,1.4241,1.4279,1.434,1.4371,1.4413,1.4453,1.4528,1.4576,1.4608,1.4658,1.4721,1.4773,1.4786,1.4808,1.4812,1.4826,1.4785,1.4781,1.4778,1.4766,1.4815,1.4815,1.4866,1.4867,1.4867]}]]